Tracking 17855 objects as of 25-September-2016
HD Live streaming from Space Station
objects crossing your sky now

SWISSCUBE

Track SWISSCUBE now!
10-day predictions
SWISSCUBE is classified as:


NORAD ID: 35932
Int'l Code: 2009-051B
Perigee: 708.4 km
Apogee: 718.9 km
Inclination: 98.5 °
Period: 98.9 minutes
Semi major axis: 7084 km
RCS: 0.05 m2 (small)
Launch date: September 23, 2009
Source: (SWTZ)
Launch site: SIRHARIKOTA (SRI)
Uplink (MHz):
Downlink (MHz): 437.505
Beacon (MHz): 437.505
Mode: 1200bps BFSK CW
Call sign: HB9EG1
Status: Active


SWISSCUBE is Switzerland's first satellite and will try to detect a phenomenon known as airglow using an off-the-shelf sensor.
Your satellite tracking list
Your tracking list is empty





NASA's NSSDC Master Catalog

Two Line Element Set (TLE):
1 35932U 09051B   16268.93057079 +.00000272 +00000-0 +72863-4 0  9991
2 35932 098.4614 037.2814 0007367 355.8407 004.2728 14.55877221371686
Source of the keplerian elements: Caltech

N2YO: 503